DW9167 Weather Reports


Display with metric or nautical units.
time (UTC)temp
F
wind
direction
speed
MPH
gust
MPH
rain 1hr
in
rain 24hr
in
rain mn
in
humidity
%
barometer
mb
20260902222219 98 281 1.0 5.0 0.00 0.00 0.00 41 1000.7
20260902221219 99 180 0.0 0.0 0.00 0.00 0.00 40 1000.7
20260902220218 99 253 2.0 6.0 0.00 0.00 0.00 40 1000.4
20260902215218 100 183 1.0 4.0 0.00 0.00 0.00 39 1000.0
20260902214316 101 191 0.0 3.0 0.00 0.00 0.00 38 1000.4
20260902212322 101 257 2.0 5.0 0.00 0.00 0.00 39 1000.7
20260902211319 98 180 0.0 1.0 0.00 0.00 0.00 41 1001.1
20260902210417 99 179 2.0 4.0 0.00 0.00 0.00 40 1001.1
20260902204418 97 156 1.0 5.0 0.00 0.00 0.00 43 1002.1
20260902203517 95 143 0.0 0.0 0.00 0.00 0.00 44 1002.1
20260902202518 95 309 1.0 6.0 0.00 0.00 0.00 43 1002.4
20260902202419 95 315 0.0 0.0 0.00 0.00 0.00 44 1002.4
20260902201418 95 315 1.0 5.0 0.00 0.00 0.00 44 1002.8
20260902200417 95 157 0.0 0.0 0.00 0.00 0.00 43 1002.4
20260902195419 95 158 0.0 2.0 0.00 0.00 0.00 43 1002.8
20260902194419 94 270 0.0 0.0 0.00 0.00 0.00 46 1003.2
20260902193420 95 270 1.0 4.0 0.00 0.00 0.00 43 1003.2
20260902192418 95 342 0.0 0.0 0.00 0.00 0.00 44 1002.8
20260902191419 97 165 1.0 4.0 0.00 0.00 0.00 43 1002.8
20260902190517 97 177 1.0 4.0 0.00 0.00 0.00 42 1003.2
20260902185520 97 292 1.0 4.0 0.00 0.00 0.00 43 1003.2
20260902184617 98 291 2.0 7.0 0.00 0.00 0.00 42 1003.2
20260902183619 98 271 0.0 3.0 0.00 0.00 0.00 41 1003.5
20260902182618 97 180 2.0 6.0 0.00 0.00 0.00 43 1003.8
20260902175719 96 325 1.0 5.0 0.00 0.00 0.00 44 1004.9
20260902173718 95 128 0.0 3.0 0.00 0.00 0.00 47 1005.1
20260902171720 95 313 1.0 5.0 0.00 0.00 0.00 46 1005.4
20260902170817 94 165 1.0 3.0 0.00 0.00 0.00 48 1005.6
20260902165819 94 306 0.0 2.0 0.00 0.00 0.00 47 1005.6
20260902164917 92 270 0.0 2.0 0.00 0.00 0.00 51 1006.2
20260902163919 93 1 1.0 4.0 0.00 0.00 0.00 51 1005.9
20260902162918 91 302 4.0 10.0 0.00 0.00 0.00 52 1006.2
20260902162017 91 321 4.0 7.0 0.00 0.00 0.00 54 1006.2
20260902160017 88 292 0.0 1.0 0.00 0.00 0.00 62 1006.9
20260902155018 87 306 1.0 4.0 0.00 0.00 0.00 63 1006.9
20260902153019 84 315 0.0 4.0 0.00 0.00 0.00 72 1007.6
20260902152020 83 351 2.0 5.0 0.00 0.00 0.00 73 1007.6
20260902151018 82 336 1.0 4.0 0.00 0.00 0.00 74 1007.6
20260902145018 82 308 4.0 5.0 0.00 0.00 0.00 75 1007.6
20260902144019 82 311 3.0 6.0 0.00 0.00 0.00 74 1007.6
20260902143117 82 222 1.0 5.0 0.00 0.00 0.00 76 1007.6
20260902142120 81 179 2.0 5.0 0.00 0.00 0.00 79 1008.0
20260902141117 81 53 0.0 4.0 0.00 0.00 0.00 80 1008.0
20260902140117 80 148 1.0 4.0 0.00 0.00 0.00 83 1008.0
20260902135119 79 163 1.0 5.0 0.00 0.00 0.00 83 1008.0
20260902134118 79 182 0.0 2.0 0.00 0.00 0.00 84 1008.0
20260902132117 77 180 0.0 0.0 0.00 0.00 0.00 88 1008.3
20260902131119 76 180 0.0 3.0 0.00 0.00 0.00 89 1008.0
20260902130118 76 180 0.0 0.0 0.00 0.00 0.00 90 1008.3
20260902125217 76 180 0.0 0.0 0.00 0.00 0.00 91 1008.0
20260902124217 75 180 0.0 0.0 0.00 0.00 0.00 91 1008.0
20260902123316 75 270 0.0 0.0 0.00 0.00 0.00 91 1008.0
20260902122317 75 270 0.0 0.0 0.00 0.00 0.00 91 1007.6
20260902114419 76 180 0.0 0.0 0.00 0.00 0.00 90 1007.6
20260902113419 76 180 0.0 0.0 0.00 0.00 0.00 90 1007.6
20260902112420 75 180 0.0 0.0 0.00 0.00 0.00 89 1007.6
20260902111416 76 180 0.0 0.0 0.00 0.00 0.00 90 1007.6
20260902110419 76 164 0.0 3.0 0.00 0.00 0.00 89 1007.6
20260902105419 76 180 0.0 0.0 0.00 0.00 0.00 88 1007.6
20260902103516 76 180 0.0 0.0 0.00 0.00 0.00 87 1007.3
20260902100616 77 292 0.0 0.0 0.00 0.00 0.00 86 1006.9
20260902095617 77 270 0.0 0.0 0.00 0.00 0.00 85 1006.9
20260902093618 77 180 1.0 4.0 0.00 0.00 0.00 86 1007.3
20260902093519 77 180 0.0 0.0 0.00 0.00 0.00 87 1007.3
20260902092519 77 180 1.0 3.0 0.00 0.00 0.00 87 1007.6
20260902091518 77 180 0.0 0.0 0.00 0.00 0.00 87 1007.3
20260902090517 77 180 2.0 4.0 0.00 0.00 0.00 87 1007.6
20260902084616 78 180 0.0 0.0 0.00 0.00 0.00 85 1007.6
20260902083620 78 180 0.0 2.0 0.00 0.00 0.00 85 1007.6
20260902081618 78 180 0.0 0.0 0.00 0.00 0.00 84 1007.6
20260902080717 78 180 0.0 0.0 0.00 0.00 0.00 82 1007.6
20260902075716 78 180 0.0 0.0 0.00 0.00 0.00 82 1007.4
20260902074718 78 180 0.0 0.0 0.00 0.00 0.00 81 1007.5
20260902073816 79 180 0.0 0.0 0.00 0.00 0.00 80 1007.6
20260902072818 79 180 0.0 0.0 0.00 0.00 0.00 79 1007.6
20260902071817 79 180 0.0 2.0 0.00 0.00 0.00 78 1007.6
20260902070817 79 135 0.0 0.0 0.00 0.00 0.00 79 1007.6
20260902065817 80 135 0.0 2.0 0.00 0.00 0.00 77 1007.6
20260902064817 80 180 0.0 0.0 0.00 0.00 0.00 76 1007.6
20260902063817 80 168 0.0 2.0 0.00 0.00 0.00 76 1007.3
20260902062916 80 180 0.0 0.0 0.00 0.00 0.00 76 1007.3
20260902061919 80 148 1.0 4.0 0.00 0.00 0.00 77 1007.3
20260902061018 81 180 0.0 0.0 0.00 0.00 0.00 76 1007.3
20260902055017 81 180 0.0 0.0 0.00 0.00 0.00 76 1007.3
20260902053017 81 180 1.0 3.0 0.00 0.00 0.00 75 1006.9
20260902052019 81 180 0.0 1.0 0.00 0.00 0.00 73 1006.9
20260902051017 82 180 0.0 2.0 0.00 0.00 0.00 73 1007.3
20260902045030 82 175 1.0 3.0 0.00 0.00 0.00 72 1006.9
20260902044031 83 180 0.0 3.0 0.00 0.00 0.00 71 1007.3
20260902043131 83 171 2.0 5.0 0.00 0.00 0.00 70 1006.9
20260902042131 83 159 0.0 3.0 0.00 0.00 0.00 69 1006.9
20260902040229 84 270 0.0 2.0 0.00 0.00 0.00 68 1006.6
20260902035232 84 180 0.0 2.0 0.00 0.00 0.00 67 1006.6
20260902034231 85 180 0.0 2.0 0.00 0.00 0.00 66 1006.2
20260902033231 85 157 1.0 2.0 0.00 0.00 0.00 65 1006.2
20260902032330 85 135 1.0 3.0 0.00 0.00 0.00 64 1006.2
20260902031430 85 135 0.0 0.0 0.00 0.00 0.00 63 1005.9
20260902030432 85 135 0.0 3.0 0.00 0.00 0.00 63 1005.6
20260902025531 85 135 0.0 1.0 0.00 0.00 0.00 62 1005.6
20260902024531 86 135 0.0 0.0 0.00 0.00 0.00 61 1005.2
20260902023531 86 135 0.0 0.0 0.00 0.00 0.00 61 1005.2
20260902021537 86 180 0.0 0.0 0.00 0.00 0.00 59 1004.9
20260902020630 87 180 0.0 0.0 0.00 0.00 0.00 59 1004.9
20260902015730 87 180 1.0 5.0 0.00 0.00 0.00 58 1004.7
20260902014731 87 172 0.0 2.0 0.00 0.00 0.00 56 1004.5
20260902013731 88 179 0.0 2.0 0.00 0.00 0.00 55 1004.3
20260902012731 89 136 1.0 3.0 0.00 0.00 0.00 54 1004.0
20260902011733 90 158 2.0 3.0 0.00 0.00 0.00 51 1003.8
20260902010831 90 90 0.0 3.0 0.00 0.00 0.00 48 1003.8
20260902004830 91 90 0.0 0.0 0.00 0.00 0.00 46 1003.5
20260902003831 92 180 0.0 0.0 0.00 0.00 0.00 46 1003.5
20260902002831 92 90 0.0 0.0 0.00 0.00 0.00 46 1003.5
20260902001831 92 90 1.0 4.0 0.00 0.00 0.00 45 1003.5
20260902000832 92 112 0.0 0.0 0.00 0.00 0.00 46 1003.5
20260901235930 93 270 0.0 0.0 0.00 0.00 0.00 46 1003.5
20260901234931 92 67 0.0 0.0 0.00 0.00 0.00 46 1003.5
20260901233933 93 67 0.0 2.0 0.00 0.00 0.00 46 1003.5
20260901232931 94 67 0.0 4.0 0.00 0.00 0.00 44 1003.5
20260901232029 96 67 3.0 5.0 0.00 0.00 0.00 43 1003.2
20260901231031 97 90 3.0 6.0 0.00 0.00 0.00 41 1002.8
20260901230130 99 106 0.0 3.0 0.00 0.00 0.00 40 1002.1
20260901225131 99 157 0.0 0.0 0.00 0.00 0.00 39 1002.1
20260901224132 98 67 0.0 2.0 0.00 0.00 0.00 40 1002.1
20260901223132 97 127 0.0 0.0 0.00 0.00 0.00 42 1002.8